Flag for Norway Weather past 2 weeks in Trondheim, Norway

Now
34 °F

Broken clouds.


Feels Like: 31 °F
Forecast: 29 / 43 °F
Wind: 3 mph from East

Location: Trondheim / Vaernes

Current Time: Mar 30, 2015 at 8:37:53 AM

Latest Report: Mar 30, 2015 at 7:50 AM


Visibility: N/A

Pressure: 29.06 "Hg

Humidity: 93%

Dew point: 32 °F

Location of TrondheimLocation

Historic Weather in Trondheim — Graph

°F

Trondheim temperature yesterday

Maximum temperature yesterday: 46 °F (at 11:20 AM)
Minimum temperature yesterday: 36 °F (at 10:50 PM)
Average temperature yesterday: 43 °F

Past Weeks' High & Low Weather Summary

 TemperatureHumidityPressure
High52 °F (Mar 16, 2:20 PM)100% (Mar 22, 8:20 AM)30.80 "Hg (Mar 22, 8:20 AM)
Low19 °F (Mar 21, 5:20 AM)23% (Mar 15, 8:20 PM)28.97 "Hg (Mar 29, 5:20 PM)
Average39 °F66%30.01 "Hg
* Reported Mar 15 6:20 AM — Mar 30 7:20 AM, Trondheim, Weather by CustomWeather, © 2015

Note: Actual official high and low records may vary slightly from our data, if they occured in-between our weather recording intervals... More about our weather records

Advertising

Trondheim weather history for previous 24 hours

 ConditionsComfort  
Time TempWeatherWind HumidityBarometerVisibility
7:20 AM
Mon, Mar 30
34 °FPassing clouds.3 mph93%29.06 "HgN/A
6:50 AM34 °FLight snow. Partly cloudy.2 mph93%29.03 "HgN/A
6:20 AM32 °FMostly cloudy.2 mph100%29.03 "HgN/A
5:50 AM32 °FPartly cloudy.5 mph100%29.03 "HgN/A
4:50 AM34 °FPassing clouds.5 mph93%29.00 "HgN/A
1:50 AM36 °FRain. Passing clouds.3 mph93%29.00 "HgN/A
12:50 AM36 °FPartly cloudy.3 mph93%29.00 "HgN/A
12:20 AM36 °FPartly cloudy.5 mph93%29.00 "HgN/A
11:50 PM
Sun, Mar 29
36 °FPartly cloudy.6 mph93%29.00 "HgN/A
11:20 PM36 °FPartly cloudy.6 mph100%29.00 "HgN/A
10:50 PM36 °FPartly cloudy.6 mph93%29.00 "HgN/A
10:20 PM37 °FPartly cloudy.6 mph93%29.00 "HgN/A
9:50 PM37 °FPartly cloudy.7 mph93%29.00 "HgN/A
9:20 PM37 °FPartly cloudy.5 mph93%29.00 "HgN/A
8:50 PM39 °FBroken clouds.3 mph87%29.00 "HgN/A
8:20 PM39 °FScattered clouds.2 mph87%29.00 "HgN/A
7:50 PM39 °FScattered showers. Partly sunny.1 mph81%29.00 "HgN/A
7:20 PM39 °FPartly sunny.12 mph87%29.00 "HgN/A
6:50 PM39 °FDrizzle. Partly sunny.12 mph87%29.00 "HgN/A
6:20 PM43 °FDrizzle. Partly sunny.15 mph76%29.00 "HgN/A
5:50 PM45 °FScattered showers. Broken clouds.6 mph66%28.97 "HgN/A
5:20 PM46 °FScattered showers. Partly sunny.9 mph57%28.97 "HgN/A
4:50 PM46 °FPartly sunny.5 mph53%29.00 "HgN/A
4:20 PM46 °FPartly sunny.1 mph53%29.00 "HgN/A
3:50 PM46 °FScattered showers. Partly sunny.2 mph53%29.00 "HgN/A
3:20 PM46 °FPartly sunny.3 mph53%29.00 "HgN/A
2:50 PM46 °FBroken clouds.8 mph53%29.00 "HgN/A
2:20 PM46 °FScattered clouds.7 mph50%29.00 "HgN/A
1:50 PM46 °FScattered clouds.9 mph50%29.00 "HgN/A
1:20 PM46 °FPassing clouds.8 mph50%29.03 "HgN/A
12:50 PM46 °FScattered clouds.8 mph50%29.03 "HgN/A
12:20 PM46 °FPassing clouds.9 mph50%29.03 "HgN/A
11:50 AM46 °FPassing clouds.10 mph46%29.03 "HgN/A
11:20 AM46 °FPassing clouds.9 mph46%29.03 "HgN/A
10:50 AM45 °FPassing clouds.5 mph49%29.03 "HgN/A
10:20 AM45 °FSunny.9 mph49%29.03 "Hg10 mi
9:50 AM45 °FPassing clouds.20 mph49%29.00 "HgN/A
9:20 AM45 °FPassing clouds.26 mph49%29.00 "HgN/A
8:50 AM43 °FSunny.24 mph53%29.00 "Hg10 mi
Weather by CustomWeather, © 2015

See weather overviewHow to use our weather pages